Location: Angwan Shehu
(11.2514°N, 7.4613°E)
Time: 04:02:02
(UTC+00:00)

Vanguard 1 Rocket - Visible Passes

Search period start: 14 April 2021 00:00
Search period end: 24 April 2021 00:00
Orbit: 653 x 4223 km, 34.3° (Epoch: 12 April)

Date Brightness Start Highest point End Pass type
(mag) Time Alt. Az. Time Alt. Az. Time Alt. Az.
14 Apr 11.5 02:16:17 15° S 02:16:17 15° S 02:24:25 10° S visible
14 Apr 8.9 19:45:17 10° NW 19:52:41 50° NE 19:54:12 48° ENE visible
14 Apr 10.6 22:09:48 10° WNW 22:11:28 18° WNW 22:11:28 18° WNW visible
15 Apr 11.7 01:08:56 13° SSE 01:08:56 13° SSE 01:11:38 10° SSE visible
15 Apr 9.3 18:35:37 10° NNW 18:41:08 27° NE 18:46:59 16° E visible
15 Apr 9.2 20:58:41 10° WNW 21:04:16 52° WNW 21:04:16 52° WNW visible
16 Apr 11.6 02:18:49 12° S 02:18:49 12° S 02:24:30 10° S visible
16 Apr 8.6 19:48:16 10° NW 19:55:35 65° NE 19:57:06 60° ENE visible
16 Apr 10.7 22:13:29 10° W 22:14:23 14° W 22:14:23 14° W visible
17 Apr 11.7 01:11:26 11° S 01:11:26 11° S 01:12:23 10° SSE visible
17 Apr 8.9 18:38:25 10° NNW 18:44:09 35° NE 18:49:57 20° E visible
17 Apr 9.4 21:02:00 10° WNW 21:07:14 45° W 21:07:14 45° W visible
18 Apr 11.8 05:04:49 10° S 05:06:33 10° SSE 05:08:14 10° SSE visible
18 Apr 8.4 19:51:21 10° NW 19:58:31 85° NE 20:00:07 69° ESE visible
19 Apr 8.4 18:41:17 10° NW 18:47:06 48° NE 18:53:01 23° E visible
19 Apr 9.6 21:05:35 10° WNW 21:10:18 36° WSW 21:10:18 36° WSW visible
20 Apr 11.8 05:01:40 10° S 05:11:37 14° SSE 05:19:55 10° SE visible
20 Apr 8.5 19:54:35 10° WNW 20:01:36 72° SSW 20:03:14 62° SSE visible
21 Apr 8.0 18:44:16 10° NW 18:50:03 67° NE 18:56:12 25° ESE visible
21 Apr 9.9 21:09:28 10° W 21:13:29 27° WSW 21:13:29 27° WSW visible
22 Apr 8.8 19:58:03 10° WNW 20:04:50 52° SSW 20:06:28 48° S visible
23 Apr 11.8 03:49:12 10° S 03:58:51 13° SSE 04:07:33 10° SE visible
23 Apr 7.9 18:47:23 10° WNW 18:53:05 87° SSW 18:59:28 24° SE visible
23 Apr 10.2 21:13:50 10° WSW 21:16:46 19° WSW 21:16:46 19° WSW visible
